Location: Asheville, NC
(35.6000°N, 82.5500°W)
Time: 14:39:31
(UTC-04:00)

Vanguard 2 Rocket - Pass Details

Date: 10 December 2017
Orbit: 553 x 3328 km, 32.9° (Epoch: 20 April)

Event Time Altitude Azimuth Distance (km) Brightness Sun altitude
Rises 01:53:55 0° 283° (WNW) 7,098 - -66.6°
Reaches altitude 10° 01:58:35 10° 280° (W) 6,213 - -65.7°
Maximum altitude 02:18:22 60° 208° (SSW) 3,425 - -62.0°
Exits shadow 02:29:13 26° 141° (SE) 4,150 10.2 -59.9°
Drops below altitude 10° 02:33:46 10° 133° (SE) 4,970 10.8 -59.0°
Sets 02:37:03 0° 129° (SE) 5,664 11.2 -58.3°
